Terug naar catalogus

STARLINK-34253

ActiefCommunicatieVLEO
NORAD 64685·PAYLOAD·🇺🇸 United States

Gelanceerd Jun 28, 2025 vanaf Cape Canaveral Space Force Station

Loading…

Volgende Passages (komende 24 uur)

TLE

VersSource: CelesTrak SupGP

Epoch: Sep 15, 2026, 02:24 UTC

1 64685C 25139X   26258.10048611  .00057029  00000+0  16846-2 0  2580
2 64685  53.1592 323.2797 0001212  95.5722 119.4083 15.34368247    15

Volg STARLINK-34253 in realtime met AllMySat

Download on the App Store